CES5713 ZSPD-ZPPP

Flight info

Callsign CES5713
Flight time 3h 18m
Altitude 40100
Route K0917S1220 NXD81D NXD W131 AKDIM A470 SAGNU W132 OREXA DCT P395 DCT AVDIP W226 IPMUG W611 BIVAV W138 DYG W140 HUY A581 QNX W136 XISLI XIS3L
Aircraft A359/H-SDE2E3GHIJ3J4J5LM1ORWXY/LB1D1

Departure

Time 2026-05-05 09:36
Airport Shanghai Pudong International Airport (ZSPD)

Arrival

Time 2026-05-05 12:55
Airport Kunming Changshui International Airport (ZPPP)
Time Latitude Longitude Altitude Speed Heading
2026-05-05 07:52 31.14802 121.79775 13 ft 0 kts 68°
2026-05-05 09:20 31.14801 121.79773 29 ft 1 kts 67°
2026-05-05 09:21 31.14795 121.79755 29 ft 3 kts 67°
2026-05-05 09:21 31.14787 121.79733 28 ft 3 kts 68°
2026-05-05 09:21 31.14779 121.79711 26 ft 3 kts 74°
2026-05-05 09:21 31.14775 121.79689 27 ft 3 kts 88°
2026-05-05 09:22 31.14775 121.79671 26 ft 3 kts 116°
2026-05-05 09:22 31.14777 121.79663 26 ft 2 kts 155°
2026-05-05 09:22 31.14787 121.79659 27 ft 3 kts 161°
2026-05-05 09:22 31.14806 121.79651 28 ft 3 kts 162°
2026-05-05 09:23 31.14826 121.79644 28 ft 3 kts 163°
2026-05-05 09:23 31.14845 121.79638 28 ft 3 kts 163°
2026-05-05 09:23 31.14857 121.79633 28 ft 0 kts 162°
2026-05-05 09:26 31.14810 121.79652 28 ft 14 kts 162°
2026-05-05 09:26 31.14710 121.79688 29 ft 16 kts 162°
2026-05-05 09:26 31.14619 121.79700 29 ft 7 kts 214°
2026-05-05 09:26 31.14586 121.79647 29 ft 10 kts 247°
2026-05-05 09:27 31.14567 121.79560 29 ft 12 kts 278°
2026-05-05 09:27 31.14629 121.79493 29 ft 14 kts 338°
2026-05-05 09:27 31.14732 121.79452 29 ft 18 kts 342°
2026-05-05 09:27 31.14859 121.79405 29 ft 21 kts 342°
2026-05-05 09:28 31.15005 121.79351 29 ft 23 kts 342°
2026-05-05 09:28 31.15163 121.79292 29 ft 26 kts 342°
2026-05-05 09:28 31.15323 121.79231 29 ft 20 kts 341°
2026-05-05 09:28 31.15452 121.79181 29 ft 21 kts 342°
2026-05-05 09:29 31.15597 121.79126 29 ft 22 kts 341°
2026-05-05 09:29 31.15753 121.79070 29 ft 25 kts 345°
2026-05-05 09:29 31.15912 121.79012 29 ft 14 kts 338°
2026-05-05 09:29 31.15985 121.78971 29 ft 10 kts 312°
2026-05-05 09:30 31.15990 121.78906 29 ft 8 kts 276°
2026-05-05 09:30 31.16028 121.78861 29 ft 10 kts 332°
2026-05-05 09:30 31.16099 121.78822 29 ft 13 kts 339°
2026-05-05 09:30 31.16150 121.78774 29 ft 7 kts 273°
2026-05-05 09:31 31.16142 121.78732 29 ft 0 kts 255°
2026-05-05 09:34 31.16133 121.78692 29 ft 9 kts 255°
2026-05-05 09:34 31.16096 121.78637 29 ft 9 kts 211°
2026-05-05 09:34 31.16033 121.78635 28 ft 10 kts 164°
2026-05-05 09:35 31.16025 121.78638 28 ft 0 kts 164°
2026-05-05 09:35 31.15894 121.78686 28 ft 53 kts 161°
2026-05-05 09:35 31.15308 121.78909 27 ft 122 kts 162°
2026-05-05 09:36 31.14321 121.79283 178 ft 164 kts 162°
2026-05-05 09:36 31.13333 121.79670 1188 ft 143 kts 162°
2026-05-05 09:36 31.12365 121.80061 1906 ft 148 kts 164°
2026-05-05 09:36 31.11354 121.80440 2441 ft 162 kts 167°
2026-05-05 09:37 31.10160 121.80524 2768 ft 185 kts 186°
2026-05-05 09:37 31.08847 121.80155 3262 ft 203 kts 200°
2026-05-05 09:37 31.07532 121.79322 3644 ft 229 kts 215°
2026-05-05 09:37 31.06379 121.77928 4144 ft 249 kts 234°
2026-05-05 09:38 31.05589 121.76080 4874 ft 259 kts 248°
2026-05-05 09:38 31.04954 121.74080 5659 ft 266 kts 249°
2026-05-05 09:38 31.04307 121.72040 6517 ft 271 kts 249°
2026-05-05 09:38 31.03645 121.69998 7388 ft 274 kts 249°
2026-05-05 09:39 31.02962 121.67918 8359 ft 275 kts 249°
2026-05-05 09:39 31.02268 121.65821 9336 ft 278 kts 249°
2026-05-05 09:39 31.01697 121.63659 10179 ft 283 kts 265°
2026-05-05 09:39 31.01984 121.61340 10703 ft 301 kts 292°
2026-05-05 09:40 31.02938 121.59066 11122 ft 321 kts 297°
2026-05-05 09:40 31.03965 121.56676 11547 ft 339 kts 295°
2026-05-05 09:40 31.04962 121.54133 12181 ft 348 kts 293°
2026-05-05 09:40 31.05932 121.51519 12943 ft 353 kts 292°
2026-05-05 09:41 31.06892 121.48860 13689 ft 358 kts 292°
2026-05-05 09:41 31.07838 121.46197 14373 ft 362 kts 292°
2026-05-05 09:41 31.08804 121.43461 15041 ft 366 kts 292°
2026-05-05 09:41 31.09827 121.40717 15736 ft 370 kts 293°
2026-05-05 09:42 31.10883 121.37960 16449 ft 374 kts 293°
2026-05-05 09:42 31.11969 121.35187 17155 ft 379 kts 296°
2026-05-05 09:42 31.13077 121.32376 17846 ft 382 kts 285°
2026-05-05 09:42 31.13370 121.29841 18434 ft 385 kts 269°
2026-05-05 09:43 31.12861 121.26777 19034 ft 390 kts 250°
2026-05-05 09:43 31.11545 121.23985 19667 ft 395 kts 238°
2026-05-05 09:43 31.10149 121.21199 20285 ft 399 kts 244°
2026-05-05 09:43 31.08983 121.18264 20958 ft 401 kts 248°
2026-05-05 09:44 31.07978 121.15205 21626 ft 405 kts 251°
2026-05-05 09:44 31.07069 121.12073 22300 ft 408 kts 253°
2026-05-05 09:44 31.06215 121.08948 22960 ft 412 kts 253°
2026-05-05 09:44 31.05367 121.05743 23606 ft 416 kts 253°
2026-05-05 09:45 31.04528 121.02505 24173 ft 418 kts 254°
2026-05-05 09:45 31.03703 120.99284 24771 ft 420 kts 254°
2026-05-05 09:45 31.02870 120.96011 25375 ft 422 kts 254°
2026-05-05 09:45 31.02035 120.92724 25961 ft 424 kts 254°
2026-05-05 09:46 31.01196 120.89417 26544 ft 426 kts 254°
2026-05-05 09:46 31.00351 120.86085 27096 ft 429 kts 254°
2026-05-05 09:46 30.99503 120.82743 27660 ft 431 kts 254°
2026-05-05 09:46 30.98649 120.79381 28201 ft 434 kts 254°
2026-05-05 09:47 30.97790 120.76001 28758 ft 436 kts 254°
2026-05-05 09:47 30.96929 120.72606 29289 ft 439 kts 254°
2026-05-05 09:47 30.96088 120.69170 29807 ft 442 kts 255°
2026-05-05 09:47 30.95249 120.65716 30271 ft 444 kts 255°
2026-05-05 09:48 30.94411 120.62278 30677 ft 446 kts 254°
2026-05-05 09:48 30.93549 120.58761 31082 ft 448 kts 254°
2026-05-05 09:48 30.92688 120.55255 31456 ft 451 kts 254°
2026-05-05 09:48 30.91823 120.51744 31809 ft 453 kts 254°
2026-05-05 09:49 30.90959 120.48237 32149 ft 456 kts 254°
2026-05-05 09:49 30.90091 120.44677 32461 ft 458 kts 255°
2026-05-05 09:49 30.89274 120.41079 32787 ft 460 kts 249°
2026-05-05 09:49 30.87714 120.37857 33270 ft 460 kts 234°
2026-05-05 09:50 30.85428 120.35256 33793 ft 463 kts 219°
2026-05-05 09:50 30.82585 120.33447 34215 ft 468 kts 206°
2026-05-05 09:50 30.79524 120.32136 34550 ft 470 kts 204°
2026-05-05 09:50 30.76469 120.30777 34857 ft 468 kts 207°
2026-05-05 09:51 30.73533 120.29177 35194 ft 465 kts 212°
2026-05-05 09:51 30.70715 120.27327 35527 ft 462 kts 215°
2026-05-05 09:51 30.68052 120.25340 35850 ft 460 kts 218°
2026-05-05 09:51 30.65422 120.23229 36166 ft 459 kts 219°
2026-05-05 09:52 30.62823 120.21070 36491 ft 458 kts 219°
2026-05-05 09:52 30.60236 120.18901 36787 ft 458 kts 220°
2026-05-05 09:52 30.57655 120.16745 37100 ft 458 kts 219°
2026-05-05 09:52 30.55062 120.14594 37401 ft 457 kts 219°
2026-05-05 09:53 30.52470 120.12459 37698 ft 457 kts 219°
2026-05-05 09:53 30.49872 120.10330 37994 ft 456 kts 219°
2026-05-05 09:53 30.47277 120.08210 38265 ft 456 kts 219°
2026-05-05 09:53 30.44676 120.06094 38536 ft 456 kts 219°
2026-05-05 09:54 30.42012 120.04075 38757 ft 458 kts 216°
2026-05-05 09:54 30.39285 120.02184 38947 ft 459 kts 215°
2026-05-05 09:54 30.36505 120.00345 39158 ft 459 kts 214°
2026-05-05 09:54 30.33752 119.98554 39337 ft 459 kts 214°
2026-05-05 09:55 30.30965 119.96741 39518 ft 459 kts 214°
2026-05-05 09:55 30.28180 119.94919 39706 ft 459 kts 214°
2026-05-05 09:55 30.25407 119.93092 39872 ft 459 kts 215°
2026-05-05 09:55 30.22639 119.91260 40008 ft 460 kts 215°
2026-05-05 09:56 30.17090 119.87575 40037 ft 460 kts 215°
2026-05-05 09:56 30.11527 119.83883 40040 ft 460 kts 215°
2026-05-05 09:57 30.06016 119.80218 40031 ft 458 kts 216°
2026-05-05 09:57 30.03559 119.77962 40052 ft 450 kts 230°
2026-05-05 09:57 30.01517 119.75257 40043 ft 445 kts 237°
2026-05-05 09:58 29.98119 119.69322 40047 ft 443 kts 241°
2026-05-05 09:58 29.94792 119.63317 40051 ft 445 kts 239°
2026-05-05 09:59 29.91298 119.57429 40048 ft 445 kts 238°
2026-05-05 09:59 29.87706 119.51597 40049 ft 446 kts 238°
2026-05-05 10:00 29.84118 119.45811 40046 ft 446 kts 238°
2026-05-05 10:00 29.80505 119.39981 40040 ft 447 kts 238°
2026-05-05 10:01 29.76887 119.34142 40055 ft 447 kts 238°
2026-05-05 10:01 29.73295 119.28349 40034 ft 447 kts 238°
2026-05-05 10:02 29.69683 119.22527 40050 ft 447 kts 238°
2026-05-05 10:02 29.66679 119.17693 40050 ft 447 kts 238°
2026-05-05 10:03 29.63393 119.10382 40054 ft 442 kts 251°
2026-05-05 10:03 29.61321 119.03717 40052 ft 442 kts 252°
2026-05-05 10:04 29.59616 118.98181 40053 ft 442 kts 252°
2026-05-05 10:04 29.57464 118.91534 40048 ft 443 kts 251°
2026-05-05 10:05 29.55253 118.84906 40050 ft 444 kts 251°
2026-05-05 10:05 29.53042 118.78327 40049 ft 444 kts 251°
2026-05-05 10:06 29.51177 118.72775 40049 ft 445 kts 251°
2026-05-05 10:07 29.46274 118.58197 40050 ft 445 kts 251°
2026-05-05 10:07 29.45908 118.57114 40052 ft 446 kts 251°
2026-05-05 10:08 29.45065 118.54614 40050 ft 446 kts 251°
2026-05-05 10:09 29.43668 118.50475 40050 ft 446 kts 251°
2026-05-05 10:09 29.41432 118.43861 40051 ft 446 kts 251°
2026-05-05 10:10 29.39174 118.37194 40058 ft 448 kts 251°
2026-05-05 10:10 29.36917 118.30545 40056 ft 447 kts 251°
2026-05-05 10:11 29.34672 118.23944 40050 ft 447 kts 251°
2026-05-05 10:11 29.32407 118.17298 40043 ft 447 kts 251°
2026-05-05 10:12 29.30141 118.10662 40049 ft 447 kts 251°
2026-05-05 10:12 29.27871 118.04023 40045 ft 448 kts 251°
2026-05-05 10:13 29.25604 117.97403 40045 ft 448 kts 251°
2026-05-05 10:13 29.23324 117.90760 40046 ft 449 kts 251°
2026-05-05 10:14 29.21036 117.84109 40042 ft 449 kts 251°
2026-05-05 10:14 29.18744 117.77457 40041 ft 449 kts 251°
2026-05-05 10:15 29.16449 117.70809 40042 ft 450 kts 251°
2026-05-05 10:15 29.14147 117.64154 40038 ft 449 kts 251°
2026-05-05 10:16 29.11842 117.57503 40038 ft 450 kts 251°
2026-05-05 10:16 29.09528 117.50835 40034 ft 450 kts 251°
2026-05-05 10:17 29.07209 117.44169 40027 ft 450 kts 251°
2026-05-05 10:17 29.04906 117.37560 40029 ft 451 kts 251°
2026-05-05 10:18 29.02581 117.30900 40025 ft 451 kts 251°
2026-05-05 10:18 29.00272 117.24233 40027 ft 450 kts 252°
2026-05-05 10:19 28.98158 117.17502 40023 ft 450 kts 253°
2026-05-05 10:19 28.96086 117.10749 40023 ft 450 kts 253°
2026-05-05 10:20 28.93984 117.04016 40024 ft 450 kts 253°
2026-05-05 10:20 28.91859 116.97292 40023 ft 451 kts 253°
2026-05-05 10:21 28.89734 116.90598 40019 ft 451 kts 253°
2026-05-05 10:21 28.87594 116.83869 40021 ft 451 kts 253°
2026-05-05 10:22 28.85454 116.77150 40020 ft 451 kts 253°
2026-05-05 10:22 28.83308 116.70421 40021 ft 451 kts 253°
2026-05-05 10:23 28.81161 116.63706 40018 ft 451 kts 253°
2026-05-05 10:23 28.79024 116.57033 40013 ft 451 kts 253°
2026-05-05 10:24 28.76864 116.50304 40013 ft 451 kts 253°
2026-05-05 10:24 28.74708 116.43599 40009 ft 451 kts 253°
2026-05-05 10:25 28.72543 116.36876 40018 ft 451 kts 253°
2026-05-05 10:25 28.70375 116.30161 40014 ft 451 kts 253°
2026-05-05 10:26 28.68218 116.23493 40014 ft 451 kts 253°
2026-05-05 10:26 28.66046 116.16790 40013 ft 451 kts 253°
2026-05-05 10:27 28.63870 116.10085 40013 ft 451 kts 253°
2026-05-05 10:27 28.61688 116.03380 40011 ft 451 kts 253°
2026-05-05 10:28 28.59505 115.96681 40012 ft 451 kts 253°
2026-05-05 10:28 28.57317 115.89980 40012 ft 452 kts 253°
2026-05-05 10:29 28.55138 115.83318 40010 ft 452 kts 253°
2026-05-05 10:29 28.52956 115.76664 40010 ft 452 kts 253°
2026-05-05 10:30 28.50753 115.69955 40009 ft 452 kts 253°
2026-05-05 10:30 28.48620 115.63232 40008 ft 450 kts 258°
2026-05-05 10:31 28.47386 115.56301 40012 ft 446 kts 264°
2026-05-05 10:31 28.46554 115.49310 40013 ft 446 kts 265°
2026-05-05 10:32 28.45691 115.42367 40010 ft 446 kts 264°
2026-05-05 10:32 28.44742 115.35381 40008 ft 447 kts 264°
2026-05-05 10:33 28.43758 115.28411 40010 ft 447 kts 264°
2026-05-05 10:33 28.42932 115.22606 40009 ft 447 kts 264°
2026-05-05 10:34 28.41941 115.15630 40010 ft 447 kts 264°
2026-05-05 10:34 28.40789 115.07538 40011 ft 447 kts 264°
2026-05-05 10:35 28.39793 115.00558 40008 ft 447 kts 264°
2026-05-05 10:35 28.38961 114.94758 40012 ft 447 kts 264°
2026-05-05 10:36 28.37955 114.87752 40012 ft 447 kts 264°
2026-05-05 10:36 28.36956 114.80829 40009 ft 447 kts 264°
2026-05-05 10:37 28.35945 114.73857 40013 ft 447 kts 264°
2026-05-05 10:37 28.34935 114.66905 40013 ft 446 kts 264°
2026-05-05 10:38 28.33919 114.59947 40015 ft 446 kts 264°
2026-05-05 10:38 28.32902 114.53001 40014 ft 446 kts 265°
2026-05-05 10:39 28.31883 114.46056 40015 ft 446 kts 265°
2026-05-05 10:39 28.30864 114.39157 40016 ft 446 kts 265°
2026-05-05 10:40 28.29909 114.32214 40013 ft 444 kts 266°
2026-05-05 10:40 28.29141 114.25264 40025 ft 443 kts 267°
2026-05-05 10:41 28.28379 114.18317 40010 ft 443 kts 267°
2026-05-05 10:41 28.27583 114.11367 40019 ft 443 kts 267°
2026-05-05 10:42 28.26368 114.01041 40005 ft 443 kts 267°
2026-05-05 10:43 28.25554 113.94159 40012 ft 442 kts 267°
2026-05-05 10:43 28.24734 113.87233 40013 ft 442 kts 267°
2026-05-05 10:44 28.23912 113.80330 40009 ft 441 kts 267°
2026-05-05 10:44 28.23087 113.73428 40001 ft 441 kts 267°
2026-05-05 10:45 28.22263 113.66534 40005 ft 441 kts 267°
2026-05-05 10:45 28.21424 113.59641 39994 ft 441 kts 267°
2026-05-05 10:46 28.20580 113.52754 39981 ft 441 kts 267°
2026-05-05 10:46 28.19739 113.45901 39974 ft 440 kts 267°
2026-05-05 10:47 28.18899 113.39008 39963 ft 440 kts 267°
2026-05-05 10:47 28.18056 113.32139 39956 ft 440 kts 267°
2026-05-05 10:48 28.17216 113.25327 39954 ft 439 kts 267°
2026-05-05 10:48 28.16367 113.18457 39954 ft 439 kts 267°
2026-05-05 10:49 28.15514 113.11596 39955 ft 439 kts 267°
2026-05-05 10:49 28.14660 113.04745 39961 ft 439 kts 267°
2026-05-05 10:50 28.13803 112.97899 39970 ft 439 kts 268°
2026-05-05 10:50 28.13534 112.91067 39974 ft 431 kts 277°
2026-05-05 10:51 28.13989 112.84295 39977 ft 430 kts 279°
2026-05-05 10:51 28.14509 112.77538 39977 ft 430 kts 279°
2026-05-05 10:52 28.14946 112.70817 39978 ft 431 kts 278°
2026-05-05 10:52 28.15336 112.64046 39977 ft 431 kts 278°
2026-05-05 10:53 28.15713 112.57280 39975 ft 430 kts 278°
2026-05-05 10:53 28.16088 112.50505 39975 ft 430 kts 278°
2026-05-05 10:54 28.16463 112.43732 39973 ft 430 kts 278°
2026-05-05 10:54 28.16835 112.36967 39975 ft 430 kts 278°
2026-05-05 10:55 28.17205 112.30193 39973 ft 430 kts 278°
2026-05-05 10:55 28.17566 112.23472 39975 ft 430 kts 278°
2026-05-05 10:56 28.18074 112.16730 39974 ft 427 kts 282°
2026-05-05 10:56 28.18954 112.10070 39963 ft 427 kts 283°
2026-05-05 10:57 28.19849 112.03397 39974 ft 428 kts 282°
2026-05-05 10:57 28.20793 111.96745 39962 ft 423 kts 291°
2026-05-05 10:58 28.23434 111.90890 39972 ft 417 kts 305°
2026-05-05 10:58 28.26800 111.85534 39964 ft 417 kts 306°
2026-05-05 10:59 28.30128 111.80139 39961 ft 418 kts 305°
2026-05-05 10:59 28.33341 111.74633 39960 ft 419 kts 304°
2026-05-05 11:00 28.36481 111.69122 39954 ft 418 kts 304°
2026-05-05 11:00 28.39635 111.63571 39955 ft 418 kts 304°
2026-05-05 11:01 28.42793 111.58019 39953 ft 418 kts 304°
2026-05-05 11:01 28.45929 111.52520 39948 ft 418 kts 304°
2026-05-05 11:02 28.49085 111.46960 39942 ft 417 kts 304°
2026-05-05 11:02 28.52237 111.41401 39936 ft 417 kts 304°
2026-05-05 11:03 28.55360 111.35886 39942 ft 417 kts 304°
2026-05-05 11:03 28.58505 111.30332 39936 ft 417 kts 303°
2026-05-05 11:04 28.61662 111.24747 39940 ft 417 kts 304°
2026-05-05 11:04 28.64776 111.19233 39940 ft 417 kts 304°
2026-05-05 11:05 28.67921 111.13683 39935 ft 417 kts 304°
2026-05-05 11:05 28.71087 111.08139 39942 ft 417 kts 304°
2026-05-05 11:06 28.74254 111.02588 39937 ft 418 kts 304°
2026-05-05 11:06 28.77416 110.97028 39935 ft 418 kts 304°
2026-05-05 11:07 28.80553 110.91511 39937 ft 417 kts 304°
2026-05-05 11:07 28.83705 110.85955 39940 ft 417 kts 304°
2026-05-05 11:08 28.86859 110.80388 39939 ft 417 kts 304°
2026-05-05 11:08 28.90003 110.74833 39943 ft 418 kts 304°
2026-05-05 11:09 28.93157 110.69253 39946 ft 417 kts 304°
2026-05-05 11:09 28.96305 110.63676 39946 ft 417 kts 304°
2026-05-05 11:10 28.99442 110.58114 39949 ft 418 kts 304°
2026-05-05 11:10 29.02573 110.52552 39944 ft 418 kts 304°
2026-05-05 11:11 29.05719 110.46951 39945 ft 418 kts 304°
2026-05-05 11:11 29.08794 110.41314 39935 ft 419 kts 297°
2026-05-05 11:11 29.09654 110.38113 39947 ft 426 kts 282°
2026-05-05 11:12 29.09630 110.34690 39947 ft 438 kts 266°
2026-05-05 11:12 29.08704 110.31324 39948 ft 454 kts 251°
2026-05-05 11:12 29.06920 110.28277 39947 ft 473 kts 236°
2026-05-05 11:13 29.01928 110.23223 39949 ft 482 kts 230°
2026-05-05 11:13 28.97404 110.17686 39961 ft 471 kts 240°
2026-05-05 11:14 28.93743 110.11573 39946 ft 464 kts 246°
2026-05-05 11:14 28.90420 110.05268 39948 ft 462 kts 247°
2026-05-05 11:15 28.87125 109.98965 39940 ft 462 kts 247°
2026-05-05 11:15 28.83810 109.92734 39941 ft 462 kts 246°
2026-05-05 11:16 28.80995 109.87497 39939 ft 462 kts 246°
2026-05-05 11:16 28.77510 109.81038 39936 ft 462 kts 246°
2026-05-05 11:17 28.74144 109.74803 39940 ft 462 kts 246°
2026-05-05 11:17 28.70770 109.68558 39935 ft 462 kts 246°
2026-05-05 11:18 28.67398 109.62328 39937 ft 462 kts 246°
2026-05-05 11:18 28.64028 109.56111 39930 ft 461 kts 246°
2026-05-05 11:19 28.60671 109.49925 39926 ft 461 kts 246°
2026-05-05 11:19 28.57362 109.43665 39932 ft 458 kts 249°
2026-05-05 11:20 28.54465 109.37231 39934 ft 455 kts 251°
2026-05-05 11:20 28.51697 109.30754 39926 ft 455 kts 251°
2026-05-05 11:21 28.49374 109.25379 39931 ft 455 kts 251°
2026-05-05 11:21 28.46088 109.17891 39928 ft 456 kts 251°
2026-05-05 11:22 28.43700 109.12486 39932 ft 456 kts 251°
2026-05-05 11:22 28.40866 109.06089 39935 ft 456 kts 251°
2026-05-05 11:23 28.38003 108.99651 39929 ft 455 kts 250°
2026-05-05 11:23 28.35141 108.93224 39930 ft 455 kts 250°
2026-05-05 11:24 28.32287 108.86816 39930 ft 455 kts 250°
2026-05-05 11:24 28.29451 108.80459 39920 ft 454 kts 250°
2026-05-05 11:25 28.26594 108.74068 39930 ft 454 kts 250°
2026-05-05 11:25 28.23735 108.67680 39928 ft 453 kts 250°
2026-05-05 11:26 28.20882 108.61320 39932 ft 453 kts 250°
2026-05-05 11:26 28.18017 108.54938 39934 ft 452 kts 250°
2026-05-05 11:27 28.15187 108.48644 39937 ft 451 kts 250°
2026-05-05 11:27 28.12337 108.42318 39936 ft 450 kts 250°
2026-05-05 11:28 28.09491 108.36006 39931 ft 450 kts 250°
2026-05-05 11:28 28.06643 108.29694 39933 ft 449 kts 250°
2026-05-05 11:29 28.03793 108.23398 39929 ft 449 kts 250°
2026-05-05 11:29 28.00933 108.17089 39934 ft 450 kts 250°
2026-05-05 11:30 27.98072 108.10787 39938 ft 450 kts 250°
2026-05-05 11:30 27.95215 108.04502 39935 ft 449 kts 250°
2026-05-05 11:31 27.92348 107.98203 39942 ft 449 kts 250°
2026-05-05 11:31 27.89500 107.91956 39950 ft 449 kts 250°
2026-05-05 11:32 27.86631 107.85676 39948 ft 449 kts 250°
2026-05-05 11:32 27.83763 107.79405 39953 ft 449 kts 250°
2026-05-05 11:33 27.80908 107.73138 39951 ft 448 kts 250°
2026-05-05 11:33 27.78117 107.66851 39955 ft 447 kts 250°
2026-05-05 11:34 27.75347 107.60606 39958 ft 448 kts 250°
2026-05-05 11:34 27.72542 107.54316 39958 ft 448 kts 250°
2026-05-05 11:35 27.69733 107.48045 39956 ft 447 kts 250°
2026-05-05 11:35 27.66929 107.41802 39953 ft 447 kts 250°
2026-05-05 11:36 27.64110 107.35529 39955 ft 447 kts 250°
2026-05-05 11:36 27.61312 107.29314 39955 ft 447 kts 250°
2026-05-05 11:37 27.58492 107.23059 39956 ft 447 kts 250°
2026-05-05 11:37 27.55671 107.16808 39968 ft 447 kts 250°
2026-05-05 11:38 27.52852 107.10562 39966 ft 447 kts 250°
2026-05-05 11:38 27.50029 107.04316 39956 ft 447 kts 249°
2026-05-05 11:39 27.47205 106.98079 39961 ft 447 kts 249°
2026-05-05 11:39 27.44417 106.91884 39955 ft 445 kts 250°
2026-05-05 11:40 27.41643 106.85644 39960 ft 446 kts 250°
2026-05-05 11:40 27.38862 106.79408 39966 ft 446 kts 250°
2026-05-05 11:41 27.36069 106.73171 39960 ft 446 kts 249°
2026-05-05 11:41 27.33259 106.66935 39963 ft 447 kts 249°
2026-05-05 11:42 27.30434 106.60706 39966 ft 447 kts 249°
2026-05-05 11:42 27.27611 106.54485 39955 ft 447 kts 249°
2026-05-05 11:43 27.24800 106.48286 39961 ft 447 kts 249°
2026-05-05 11:43 27.21972 106.42054 39961 ft 447 kts 249°
2026-05-05 11:44 27.19140 106.35831 39958 ft 447 kts 249°
2026-05-05 11:44 27.16328 106.29653 39957 ft 447 kts 249°
2026-05-05 11:45 27.13502 106.23437 39957 ft 446 kts 249°
2026-05-05 11:45 27.10675 106.17233 39958 ft 446 kts 249°
2026-05-05 11:46 27.07843 106.11036 39955 ft 446 kts 249°
2026-05-05 11:46 27.05007 106.04837 39957 ft 446 kts 248°
2026-05-05 11:47 27.02976 105.98409 39953 ft 436 kts 261°
2026-05-05 11:47 27.01814 105.91744 39948 ft 435 kts 264°
2026-05-05 11:48 27.00121 105.81732 39945 ft 436 kts 262°
2026-05-05 11:48 26.98872 105.75057 39943 ft 437 kts 262°
2026-05-05 11:49 26.97587 105.68383 39940 ft 438 kts 262°
2026-05-05 11:49 26.96299 105.61711 39940 ft 438 kts 261°
2026-05-05 11:50 26.95022 105.55080 39931 ft 438 kts 262°
2026-05-05 11:50 26.93734 105.48401 39938 ft 438 kts 262°
2026-05-05 11:51 26.92437 105.41700 39924 ft 438 kts 261°
2026-05-05 11:51 26.91141 105.35018 39919 ft 439 kts 262°
2026-05-05 11:52 26.89847 105.28370 39918 ft 439 kts 261°
2026-05-05 11:52 26.88543 105.21687 39912 ft 439 kts 261°
2026-05-05 11:53 26.87238 105.15008 39911 ft 439 kts 261°
2026-05-05 11:53 26.85926 105.08315 39900 ft 439 kts 261°
2026-05-05 11:54 26.84614 105.01638 39899 ft 439 kts 261°
2026-05-05 11:54 26.83302 104.94982 39898 ft 439 kts 261°
2026-05-05 11:55 26.81980 104.88291 39902 ft 440 kts 261°
2026-05-05 11:55 26.80652 104.81606 39910 ft 440 kts 261°
2026-05-05 11:56 26.79313 104.74916 39914 ft 440 kts 261°
2026-05-05 11:56 26.77969 104.68219 39920 ft 441 kts 261°
2026-05-05 11:57 26.76519 104.61549 39923 ft 445 kts 252°
2026-05-05 11:57 26.75046 104.58524 39936 ft 454 kts 238°
2026-05-05 11:57 26.72764 104.55969 39937 ft 466 kts 222°
2026-05-05 11:58 26.67266 104.52079 39947 ft 471 kts 220°
2026-05-05 11:58 26.61965 104.47806 39951 ft 468 kts 223°
2026-05-05 11:59 26.56841 104.43325 39954 ft 467 kts 224°
2026-05-05 11:59 26.51771 104.38780 39969 ft 466 kts 225°
2026-05-05 12:00 26.46752 104.34251 39986 ft 466 kts 225°
2026-05-05 12:00 26.41712 104.29698 39988 ft 466 kts 225°
2026-05-05 12:01 26.36668 104.25145 39998 ft 466 kts 225°
2026-05-05 12:01 26.31623 104.20593 40006 ft 466 kts 225°
2026-05-05 12:02 26.26587 104.16056 40019 ft 466 kts 225°
2026-05-05 12:02 26.21536 104.11510 40029 ft 466 kts 224°
2026-05-05 12:03 26.16488 104.06972 40037 ft 466 kts 224°
2026-05-05 12:03 26.11456 104.02453 40048 ft 467 kts 224°
2026-05-05 12:04 26.06393 103.97912 40060 ft 467 kts 224°
2026-05-05 12:04 26.01333 103.93377 40069 ft 467 kts 224°
2026-05-05 12:05 25.96361 103.88736 40076 ft 460 kts 235°
2026-05-05 12:05 25.92856 103.82880 40088 ft 454 kts 242°
2026-05-05 12:06 25.89402 103.76985 40097 ft 456 kts 240°
2026-05-05 12:06 25.86045 103.71101 40118 ft 449 kts 253°
2026-05-05 12:07 25.85403 103.67745 40113 ft 442 kts 269°
2026-05-05 12:07 25.85667 103.64376 40124 ft 439 kts 284°
2026-05-05 12:07 25.87380 103.57870 40131 ft 441 kts 282°
2026-05-05 12:08 25.88222 103.51118 40136 ft 442 kts 276°
2026-05-05 12:08 25.88611 103.44306 40144 ft 441 kts 274°
2026-05-05 12:09 25.88820 103.38606 40140 ft 441 kts 273°
2026-05-05 12:09 25.89027 103.31818 40152 ft 442 kts 273°
2026-05-05 12:10 25.89216 103.24954 40147 ft 441 kts 273°
2026-05-05 12:10 25.89394 103.18199 40162 ft 441 kts 273°
2026-05-05 12:11 25.89572 103.11376 40163 ft 441 kts 273°
2026-05-05 12:11 25.89144 103.04566 40164 ft 443 kts 265°
2026-05-05 12:12 25.88201 102.97814 40187 ft 447 kts 253°
2026-05-05 12:12 25.86073 102.91309 40170 ft 447 kts 255°
2026-05-05 12:13 25.84722 102.88191 40193 ft 454 kts 241°
2026-05-05 12:13 25.82989 102.85243 40170 ft 455 kts 241°
2026-05-05 12:13 25.79186 102.79598 40196 ft 463 kts 229°
2026-05-05 12:14 25.74569 102.74675 40165 ft 466 kts 227°
2026-05-05 12:14 25.71857 102.72598 40192 ft 475 kts 216°
2026-05-05 12:14 25.69023 102.70703 40178 ft 475 kts 217°
2026-05-05 12:15 25.62983 102.67604 40189 ft 485 kts 204°
2026-05-05 12:15 25.56739 102.64914 40169 ft 487 kts 200°
2026-05-05 12:16 25.53390 102.64370 40106 ft 487 kts 185°
2026-05-05 12:16 25.50040 102.64821 40010 ft 486 kts 169°
2026-05-05 12:16 25.46921 102.66227 39820 ft 485 kts 153°
2026-05-05 12:16 25.44309 102.68423 39623 ft 484 kts 137°
2026-05-05 12:17 25.42237 102.71347 39153 ft 487 kts 121°
2026-05-05 12:17 25.40940 102.74803 38750 ft 484 kts 103°
2026-05-05 12:17 25.40535 102.78468 38268 ft 479 kts 87°
2026-05-05 12:17 25.40990 102.82123 37290 ft 482 kts 70°
2026-05-05 12:18 25.42312 102.85522 36423 ft 483 kts 56°
2026-05-05 12:18 25.44041 102.88716 35696 ft 485 kts 55°
2026-05-05 12:18 25.45795 102.91872 35059 ft 488 kts 55°
2026-05-05 12:18 25.47569 102.95027 34058 ft 480 kts 55°
2026-05-05 12:19 25.49356 102.98163 32457 ft 485 kts 55°
2026-05-05 12:19 25.51183 103.01325 30834 ft 489 kts 55°
2026-05-05 12:19 25.53029 103.04499 29251 ft 489 kts 55°
2026-05-05 12:19 25.54867 103.07652 27925 ft 481 kts 55°
2026-05-05 12:20 25.56659 103.10736 26627 ft 473 kts 55°
2026-05-05 12:20 25.58423 103.13781 25396 ft 466 kts 55°
2026-05-05 12:20 25.60162 103.16789 24182 ft 459 kts 55°
2026-05-05 12:20 25.61874 103.19758 22863 ft 453 kts 55°
2026-05-05 12:21 25.63533 103.22635 21563 ft 446 kts 55°
2026-05-05 12:21 25.65191 103.25501 20373 ft 437 kts 55°
2026-05-05 12:21 25.66769 103.28352 19261 ft 429 kts 60°
2026-05-05 12:21 25.67888 103.31372 18227 ft 420 kts 73°
2026-05-05 12:22 25.68298 103.34542 17007 ft 413 kts 90°
2026-05-05 12:22 25.67880 103.37655 15822 ft 404 kts 109°
2026-05-05 12:22 25.66680 103.40411 14695 ft 394 kts 127°
2026-05-05 12:22 25.64852 103.42609 13553 ft 383 kts 144°
2026-05-05 12:23 25.62619 103.44065 12740 ft 361 kts 162°
2026-05-05 12:23 25.60298 103.44780 12306 ft 331 kts 176°
2026-05-05 12:23 25.58098 103.44882 11913 ft 303 kts 189°
2026-05-05 12:23 25.56123 103.44466 11601 ft 286 kts 205°
2026-05-05 12:24 25.54577 103.43226 11383 ft 270 kts 232°
2026-05-05 12:24 25.53450 103.41600 11230 ft 260 kts 237°
2026-05-05 12:24 25.52417 103.40000 11172 ft 251 kts 237°
2026-05-05 12:24 25.51400 103.38456 10976 ft 246 kts 236°
2026-05-05 12:25 25.50394 103.36941 10828 ft 244 kts 236°
2026-05-05 12:25 25.49388 103.35435 10810 ft 243 kts 236°
2026-05-05 12:25 25.48370 103.33927 10800 ft 243 kts 236°
2026-05-05 12:25 25.47358 103.32423 10828 ft 244 kts 236°
2026-05-05 12:26 25.46357 103.30937 10808 ft 243 kts 236°
2026-05-05 12:26 25.45347 103.29432 10810 ft 243 kts 236°
2026-05-05 12:26 25.44321 103.27910 10821 ft 244 kts 236°
2026-05-05 12:26 25.43308 103.26412 10834 ft 243 kts 236°
2026-05-05 12:27 25.42296 103.24922 10825 ft 242 kts 236°
2026-05-05 12:27 25.41283 103.23432 10834 ft 241 kts 236°
2026-05-05 12:27 25.40311 103.21996 10822 ft 230 kts 236°
2026-05-05 12:27 25.39380 103.20621 10822 ft 218 kts 236°
2026-05-05 12:28 25.38478 103.19290 10844 ft 214 kts 236°
2026-05-05 12:28 25.37608 103.18011 10844 ft 213 kts 236°
2026-05-05 12:28 25.36714 103.16689 10843 ft 214 kts 237°
2026-05-05 12:28 25.35812 103.15367 10849 ft 216 kts 236°
2026-05-05 12:29 25.34913 103.14039 10853 ft 216 kts 236°
2026-05-05 12:29 25.33976 103.12728 10839 ft 219 kts 232°
2026-05-05 12:29 25.32869 103.11556 10850 ft 221 kts 224°
2026-05-05 12:29 25.31673 103.10486 10844 ft 222 kts 223°
2026-05-05 12:30 25.30489 103.09457 10848 ft 206 kts 223°
2026-05-05 12:30 25.29428 103.08537 10849 ft 182 kts 224°
2026-05-05 12:30 25.28519 103.07734 10808 ft 160 kts 225°
2026-05-05 12:30 25.27690 103.06961 10629 ft 152 kts 226°
2026-05-05 12:31 25.26861 103.06233 10441 ft 152 kts 224°
2026-05-05 12:31 25.26041 103.05524 10236 ft 148 kts 224°
2026-05-05 12:31 25.25238 103.04818 10029 ft 146 kts 224°
2026-05-05 12:31 25.24441 103.04121 9842 ft 145 kts 224°
2026-05-05 12:32 25.23643 103.03421 9637 ft 147 kts 224°
2026-05-05 12:32 25.22838 103.02717 9454 ft 148 kts 224°
2026-05-05 12:32 25.22035 103.02014 9239 ft 146 kts 224°
2026-05-05 12:32 25.21232 103.01311 9066 ft 150 kts 223°
2026-05-05 12:33 25.20416 103.00599 8862 ft 147 kts 223°
2026-05-05 12:33 25.19615 102.99898 8678 ft 146 kts 223°
2026-05-05 12:33 25.18788 102.99170 8473 ft 156 kts 222°
2026-05-05 12:33 25.17950 102.98444 8279 ft 156 kts 221°
2026-05-05 12:34 25.17126 102.97721 8093 ft 147 kts 221°
2026-05-05 12:34 25.16311 102.97006 7885 ft 151 kts 221°
2026-05-05 12:34 25.15485 102.96283 7655 ft 152 kts 218°
2026-05-05 12:34 25.14663 102.95567 7404 ft 149 kts 219°
2026-05-05 12:35 25.13859 102.94842 7147 ft 150 kts 217°
2026-05-05 12:35 25.13024 102.94122 6965 ft 154 kts 218°
2026-05-05 12:35 25.12218 102.93433 6930 ft 139 kts 217°
2026-05-05 12:35 25.11476 102.92815 7137 ft 142 kts 216°
2026-05-05 12:36 25.10577 102.92127 7785 ft 169 kts 214°
2026-05-05 12:36 25.09546 102.91348 8413 ft 188 kts 220°
2026-05-05 12:36 25.08698 102.90214 8696 ft 203 kts 244°
2026-05-05 12:36 25.08171 102.88731 9190 ft 210 kts 252°
2026-05-05 12:37 25.08281 102.87145 9850 ft 211 kts 293°
2026-05-05 12:37 25.09328 102.86069 10448 ft 218 kts 331°
2026-05-05 12:37 25.10897 102.85764 10771 ft 241 kts 351°
2026-05-05 12:37 25.12639 102.85606 10820 ft 265 kts 348°
2026-05-05 12:38 25.14571 102.85257 10834 ft 293 kts 343°
2026-05-05 12:38 25.16650 102.84737 10839 ft 320 kts 341°
2026-05-05 12:38 25.18880 102.84086 10843 ft 342 kts 341°
2026-05-05 12:38 25.21334 102.83953 10849 ft 365 kts
2026-05-05 12:39 25.23741 102.84928 10851 ft 376 kts 28°
2026-05-05 12:39 25.25698 102.86865 10863 ft 382 kts 49°
2026-05-05 12:39 25.27347 102.89177 10861 ft 384 kts 48°
2026-05-05 12:39 25.29125 102.91364 10849 ft 383 kts 42°
2026-05-05 12:40 25.31017 102.93378 10854 ft 380 kts 39°
2026-05-05 12:40 25.32996 102.95313 10848 ft 380 kts 38°
2026-05-05 12:40 25.35018 102.97194 10849 ft 381 kts 36°
2026-05-05 12:40 25.37078 102.99053 10865 ft 381 kts 36°
2026-05-05 12:41 25.39133 103.00883 10849 ft 379 kts 36°
2026-05-05 12:41 25.41206 103.02710 10855 ft 380 kts 35°
2026-05-05 12:41 25.43277 103.04530 10843 ft 382 kts 35°
2026-05-05 12:41 25.45361 103.06358 10839 ft 382 kts 35°
2026-05-05 12:42 25.47355 103.08298 10835 ft 374 kts 45°
2026-05-05 12:42 25.48808 103.10526 10856 ft 341 kts 60°
2026-05-05 12:42 25.49558 103.12873 10866 ft 309 kts 79°
2026-05-05 12:42 25.49660 103.15135 10850 ft 290 kts 97°
2026-05-05 12:43 25.49201 103.17241 10848 ft 274 kts 116°
2026-05-05 12:43 25.48291 103.19008 10850 ft 255 kts 132°
2026-05-05 12:43 25.47110 103.20333 10865 ft 227 kts 148°
2026-05-05 12:43 25.45789 103.20808 10857 ft 181 kts 191°
2026-05-05 12:44 25.44735 103.20409 10850 ft 149 kts 218°
2026-05-05 12:44 25.43899 103.19842 10862 ft 137 kts 220°
2026-05-05 12:44 25.43112 103.19266 10856 ft 136 kts 221°
2026-05-05 12:44 25.42321 103.18678 10850 ft 138 kts 221°
2026-05-05 12:45 25.41517 103.18089 10837 ft 140 kts 221°
2026-05-05 12:45 25.40607 103.17653 10836 ft 143 kts 210°
2026-05-05 12:45 25.39710 103.17204 10846 ft 141 kts 215°
2026-05-05 12:45 25.38874 103.16655 10831 ft 137 kts 221°
2026-05-05 12:46 25.38109 103.16051 10844 ft 136 kts 224°
2026-05-05 12:46 25.37365 103.15404 10856 ft 139 kts 226°
2026-05-05 12:46 25.36611 103.14731 10829 ft 137 kts 226°
2026-05-05 12:46 25.35859 103.14072 10839 ft 139 kts 226°
2026-05-05 12:47 25.35102 103.13415 10853 ft 138 kts 225°
2026-05-05 12:47 25.34335 103.12756 10850 ft 139 kts 224°
2026-05-05 12:47 25.33567 103.12101 10849 ft 139 kts 224°
2026-05-05 12:47 25.32801 103.11446 10862 ft 139 kts 225°
2026-05-05 12:48 25.32034 103.10782 10853 ft 139 kts 224°
2026-05-05 12:48 25.31272 103.10120 10850 ft 139 kts 225°
2026-05-05 12:48 25.30513 103.09452 10859 ft 140 kts 225°
2026-05-05 12:48 25.29758 103.08787 10846 ft 139 kts 226°
2026-05-05 12:49 25.29004 103.08120 10849 ft 139 kts 225°
2026-05-05 12:49 25.28243 103.07449 10739 ft 140 kts 225°
2026-05-05 12:49 25.27485 103.06785 10574 ft 139 kts 225°
2026-05-05 12:49 25.26725 103.06121 10387 ft 139 kts 225°
2026-05-05 12:50 25.25976 103.05465 10207 ft 137 kts 225°
2026-05-05 12:50 25.25229 103.04811 10016 ft 135 kts 225°
2026-05-05 12:50 25.24495 103.04169 9842 ft 134 kts 224°
2026-05-05 12:50 25.23757 103.03522 9675 ft 137 kts 224°
2026-05-05 12:51 25.23008 103.02865 9485 ft 138 kts 223°
2026-05-05 12:51 25.22252 103.02205 9267 ft 138 kts 224°
2026-05-05 12:51 25.21501 103.01545 9154 ft 141 kts 223°
2026-05-05 12:51 25.20713 103.00858 8895 ft 143 kts 223°
2026-05-05 12:52 25.19948 103.00188 8745 ft 139 kts 223°
2026-05-05 12:52 25.19189 102.99526 8581 ft 146 kts 223°
2026-05-05 12:52 25.18375 102.98812 8401 ft 146 kts 220°
2026-05-05 12:52 25.17562 102.98105 8171 ft 147 kts 221°
2026-05-05 12:53 25.16781 102.97418 7998 ft 144 kts 222°
2026-05-05 12:53 25.16001 102.96735 7806 ft 142 kts 221°
2026-05-05 12:53 25.15211 102.96044 7555 ft 147 kts 219°
2026-05-05 12:53 25.14432 102.95367 7349 ft 139 kts 219°
2026-05-05 12:54 25.12817 102.93940 6954 ft 151 kts 218°
2026-05-05 12:54 25.12036 102.93274 6920 ft 128 kts 218°
2026-05-05 12:54 25.11550 102.92850 6917 ft 84 kts 218°
2026-05-05 12:55 25.11340 102.92668 6920 ft 48 kts 218°
2026-05-05 12:55 25.11034 102.92424 6923 ft 34 kts 203°
2026-05-05 12:55 25.10881 102.92381 6925 ft 32 kts 189°
2026-05-05 12:55 25.10777 102.92432 6925 ft 8 kts 128°
2026-05-05 12:56 25.10753 102.92466 6927 ft 9 kts 128°
2026-05-05 12:56 25.10711 102.92526 6923 ft 11 kts 128°
2026-05-05 12:56 25.10654 102.92608 6924 ft 17 kts 128°
2026-05-05 12:56 25.10628 102.92638 6927 ft 1 kts 147°
2026-05-05 12:57 25.10619 102.92642 6924 ft 5 kts 159°
2026-05-05 12:57 25.10542 102.92676 6925 ft 14 kts 158°
2026-05-05 12:57 25.10449 102.92724 6917 ft 15 kts 155°
2026-05-05 12:57 25.10359 102.92712 6923 ft 13 kts 221°
2026-05-05 12:58 25.10363 102.92636 6919 ft 9 kts 302°
2026-05-05 12:58 25.10402 102.92578 6919 ft 10 kts 308°
2026-05-05 12:58 25.10433 102.92520 6922 ft 7 kts 272°
2026-05-05 12:58 25.10415 102.92484 6918 ft 5 kts 229°
2026-05-05 12:59 25.10389 102.92457 6916 ft 5 kts 222°
2026-05-05 12:59 25.10359 102.92428 6923 ft 6 kts 220°
2026-05-05 12:59 25.10338 102.92409 6924 ft 0 kts 219°
2026-05-05 13:00 25.10335 102.92406 6925 ft 0 kts 219°